THORAD AGENA D DEB, 6157

Orbit data source: Space-Track

THORAD AGENA D DEB, 6157 is space debris in SSO originally from a launch on Wed, 08 Apr 1970 UTC launched from the Air Force Western Test Range (AFWTR). Debris objects in space refer to the collection of defunct objects orbiting the Earth. Examples of debris include non-operational satellites, rocket bodies, and fragments generated from explosions, collisions, or faulty payload assembly.

Loading next visibility...
Identifier
6157, 1970-025MX
Orbit
SSO
Country
Flag of USUS
Related business
Manufacturer
Unknown
Mission
Spacecraft
Bus & Motor
Unknown
Mass
Unknown
Launch date (UTC)
1970-04-08 (56 years ago)
Launch vehicle
Unknown
Launch site
Air Force Western Test Range (AFWTR)
Object type
Payload
Rocket body
Debris
Shape & HBR
Unknown shape, 0.1 m
Radar Cross Section
Medium (>0.1 m² and <1 m²)

Expand to show TLE details & history
Last TLE update: 14 hours ago

TLE from 14 hours ago
0 THORAD AGENA D DEB
1 06157U 70025MX  26237.33252626  .00001784  00000-0  82928-3 0  9994
2 06157  99.8924  70.5303 0011936 180.6922 179.4237 14.22105440855754
Epoch: 2026-08-25T07:58Z
TLE epoch observation values (Epoch: 2026-08-25T07:58:50.268Z)
Latitude
-0.00005°
Longitude
-22.78053°
Altitude
829.709 km
Speed
7.434 km/s
True Right ascension
04h 42m 07s
True Declination
0° 00' 00"
Sunlit
Object was in daylight at epoch
Visualization orbit readout
Latitude
Unknown
Longitude
Unknown
Altitude
Unknown
Speed
Unknown
Apparent Right ascension
Unknown
Apparent Declination
Unknown
Sunlit
N/A
Visualization observer readout
Local Sidereal Time
12:46:30
Azimuth
Unknown
Elevation
Unknown
Doppler factor
Unknown
Orbital elements
Apogee altitude
824.044 km
Perigee altitude
806.871 km
Semi-major axis
7,193.594 km
Eccentricity
0.00119
Inclination
99.8924°
RAAN
70.5303°
Arg. of periapsis
180.6922°
True anomaly
179.42507°
Mean anomaly
179.4237°
Eccentric anomaly
179.42439°
Mean motion
3.55733 °/min
Orbital period
101.2 mins
BSTAR
0.00082928
Loading maneuver chart data...
Computing Atmospheric mass density...

Documentation

Showing up to 5 results
|